| time (UTC) | temp F | wind direction | speed knots | gust knots | rain 1hr in | rain 24hr in | rain mn in | humidity % | barometer mb |
| 20260505051101 | 54 | 128 | 1.7 | 1.7 | 0.00 | 0.00 | 0.00 | 95 | 1005.8 |
| 20260505050558 | 54 | 151 | 1.7 | 1.7 | 0.00 | 0.00 | 0.00 | 95 | 1006.1 |
| 20260505041526 | 55 | 143 | 1.7 | 1.7 | 0.00 | 0.00 | 0.00 | 94 | 1005.5 |
| 20260505041024 | 55 | 138 | 2.6 | 2.6 | 0.00 | 0.00 | 0.00 | 94 | 1005.3 |
| 20260505040521 | 55 | 132 | 1.7 | 1.7 | 0.00 | 0.00 | 0.00 | 94 | 1005.3 |
| 20260505040018 | 55 | 136 | 1.7 | 1.7 | 0.00 | 0.00 | 0.00 | 94 | 1005.4 |
| 20260505035514 | 55 | 136 | 1.7 | 1.7 | 0.00 | 0.00 | 0.00 | 94 | 1005.1 |
| 20260505035011 | 55 | 134 | 2.6 | 2.6 | 0.00 | 0.00 | 0.00 | 94 | 1005.3 |
| 20260505034507 | 55 | 134 | 0.9 | 0.9 | 0.00 | 0.00 | 0.00 | 94 | 1005.2 |
| 20260505034004 | 55 | 137 | 1.7 | 1.7 | 0.00 | 0.00 | 0.00 | 94 | 1005.5 |
| 20260505033501 | 55 | 136 | 0.9 | 1.7 | 0.00 | 0.00 | 0.00 | 93 | 1005.2 |
| 20260505032959 | 55 | 132 | 1.7 | 1.7 | 0.00 | 0.00 | 0.00 | 93 | 1005.2 |
| 20260505032456 | 56 | 134 | 0.9 | 0.9 | 0.00 | 0.00 | 0.00 | 93 | 1005.3 |
| 20260505031952 | 56 | 135 | 0.9 | 0.9 | 0.00 | 0.00 | 0.00 | 93 | 1005.3 |
| 20260505031450 | 56 | 133 | 0.9 | 0.9 | 0.00 | 0.00 | 0.00 | 93 | 1005.1 |
| 20260505030946 | 56 | 133 | 0.9 | 0.9 | 0.00 | 0.00 | 0.00 | 93 | 1005.2 |
| 20260505030442 | 56 | 127 | 0.9 | 0.9 | 0.00 | 0.00 | 0.00 | 93 | 1005.2 |
| 20260505025938 | 56 | 133 | 0.9 | 1.7 | 0.00 | 0.00 | 0.00 | 92 | 1005.4 |
| 20260505025435 | 56 | 135 | 0.9 | 1.7 | 0.00 | 0.00 | 0.00 | 92 | 1005.1 |
| 20260505024934 | 56 | 129 | 0.0 | 0.0 | 0.00 | 0.00 | 0.00 | 92 | 1005.2 |
| 20260505024431 | 57 | 129 | 0.0 | 0.0 | 0.00 | 0.00 | 0.00 | 92 | 1005.3 |
| 20260505023928 | 57 | 132 | 0.0 | 0.0 | 0.00 | 0.00 | 0.00 | 91 | 1005.1 |
| 20260505023425 | 57 | 128 | 0.0 | 0.0 | 0.00 | 0.00 | 0.00 | 91 | 1005.1 |
| 20260505022922 | 57 | 132 | 0.0 | 0.0 | 0.00 | 0.00 | 0.00 | 91 | 1005.1 |
| 20260505022420 | 57 | 127 | 0.0 | 0.0 | 0.00 | 0.00 | 0.00 | 91 | 1005.1 |
| 20260505021917 | 57 | 128 | 0.0 | 0.0 | 0.00 | 0.00 | 0.00 | 91 | 1004.9 |
| 20260505021413 | 58 | 130 | 0.0 | 0.0 | 0.00 | 0.00 | 0.00 | 90 | 1005.0 |
| 20260505020909 | 58 | 131 | 0.0 | 0.0 | 0.00 | 0.00 | 0.00 | 89 | 1004.9 |
| 20260505020404 | 58 | 131 | 0.0 | 0.0 | 0.00 | 0.00 | 0.00 | 89 | 1005.1 |
| 20260505015902 | 59 | 130 | 0.0 | 0.0 | 0.00 | 0.00 | 0.00 | 88 | 1005.1 |
| 20260505015359 | 59 | 127 | 0.0 | 0.0 | 0.00 | 0.00 | 0.00 | 88 | 1004.9 |
| 20260505014856 | 59 | 127 | 0.0 | 0.0 | 0.00 | 0.00 | 0.00 | 87 | 1005.0 |
| 20260505014353 | 59 | 129 | 0.0 | 0.0 | 0.00 | 0.00 | 0.00 | 87 | 1004.8 |
| 20260505013850 | 60 | 131 | 0.0 | 0.0 | 0.00 | 0.00 | 0.00 | 86 | 1004.7 |
| 20260505013347 | 60 | 134 | 0.0 | 0.0 | 0.00 | 0.00 | 0.00 | 86 | 1004.6 |
| 20260505012845 | 60 | 128 | 0.0 | 0.0 | 0.00 | 0.00 | 0.00 | 86 | 1004.8 |
| 20260505012343 | 60 | 132 | 0.0 | 0.0 | 0.00 | 0.00 | 0.00 | 85 | 1005.0 |
| 20260505011838 | 61 | 134 | 0.0 | 0.0 | 0.00 | 0.00 | 0.00 | 84 | 1004.8 |
| 20260505011336 | 61 | 124 | 0.0 | 0.0 | 0.00 | 0.00 | 0.00 | 82 | 1004.9 |
| 20260505010831 | 62 | 128 | 0.0 | 0.0 | 0.00 | 0.00 | 0.00 | 82 | 1004.8 |
| 20260505010327 | 62 | 128 | 0.0 | 0.0 | 0.00 | 0.00 | 0.00 | 81 | 1004.8 |
| 20260505005824 | 63 | 127 | 0.0 | 0.0 | 0.00 | 0.00 | 0.00 | 79 | 1004.8 |
| 20260505005321 | 64 | 127 | 0.0 | 0.0 | 0.00 | 0.00 | 0.00 | 77 | 1004.7 |
| 20260505004818 | 64 | 127 | 0.0 | 0.0 | 0.00 | 0.00 | 0.00 | 75 | 1004.8 |
| 20260505004314 | 64 | 127 | 0.0 | 0.0 | 0.00 | 0.00 | 0.00 | 75 | 1004.9 |
| 20260505003812 | 65 | 127 | 0.0 | 0.0 | 0.00 | 0.00 | 0.00 | 74 | 1004.7 |
| 20260505003309 | 66 | 127 | 0.0 | 0.0 | 0.00 | 0.00 | 0.00 | 73 | 1004.7 |
| 20260505002805 | 66 | 127 | 0.0 | 0.0 | 0.00 | 0.00 | 0.00 | 72 | 1004.6 |
| 20260505002304 | 67 | 127 | 0.0 | 0.0 | 0.00 | 0.00 | 0.00 | 71 | 1004.7 |
| 20260505001801 | 67 | 124 | 0.0 | 0.0 | 0.00 | 0.00 | 0.00 | 70 | 1004.7 |
| 20260505001257 | 68 | 129 | 0.0 | 0.0 | 0.00 | 0.00 | 0.00 | 68 | 1004.7 |
| 20260505000754 | 68 | 131 | 0.0 | 0.0 | 0.00 | 0.00 | 0.00 | 67 | 1004.7 |
| 20260505000252 | 69 | 130 | 0.0 | 0.0 | 0.00 | 0.00 | 0.00 | 64 | 1004.5 |
| 20260504235749 | 71 | 132 | 0.0 | 0.0 | 0.00 | 0.00 | 0.00 | 60 | 1004.6 |
| 20260504235245 | 72 | 137 | 1.7 | 1.7 | 0.00 | 0.00 | 0.00 | 56 | 1004.8 |
| 20260504234742 | 73 | 126 | 1.7 | 1.7 | 0.00 | 0.00 | 0.00 | 51 | 1004.8 |
| 20260504234239 | 74 | 129 | 0.9 | 0.9 | 0.00 | 0.00 | 0.00 | 51 | 1005.0 |
| 20260504233736 | 74 | 75 | 3.5 | 4.3 | 0.00 | 0.00 | 0.00 | 50 | 1004.6 |
| 20260504233231 | 75 | 106 | 2.6 | 2.6 | 0.00 | 0.00 | 0.00 | 48 | 1004.9 |
| 20260504232729 | 75 | 101 | 4.3 | 5.2 | 0.00 | 0.00 | 0.00 | 49 | 1004.6 |
| 20260504232226 | 75 | 140 | 3.5 | 5.2 | 0.00 | 0.00 | 0.00 | 49 | 1004.8 |
| 20260504231722 | 75 | 127 | 1.7 | 1.7 | 0.00 | 0.00 | 0.00 | 53 | 1004.7 |
| 20260504231219 | 76 | 130 | 2.6 | 2.6 | 0.00 | 0.00 | 0.00 | 49 | 1004.6 |
| 20260504230715 | 75 | 93 | 4.3 | 5.2 | 0.00 | 0.00 | 0.00 | 49 | 1004.6 |
| 20260504230214 | 76 | 163 | 6.1 | 8.7 | 0.00 | 0.00 | 0.00 | 51 | 1004.9 |
| 20260504225712 | 76 | 130 | 0.0 | 0.9 | 0.00 | 0.00 | 0.00 | 51 | 1004.7 |
| 20260504225208 | 76 | 124 | 2.6 | 4.3 | 0.00 | 0.00 | 0.00 | 52 | 1004.6 |
| 20260504224705 | 76 | 74 | 2.6 | 2.6 | 0.00 | 0.00 | 0.00 | 52 | 1004.7 |
| 20260504224203 | 77 | 121 | 2.6 | 2.6 | 0.00 | 0.00 | 0.00 | 54 | 1004.7 |
| 20260504223659 | 76 | 128 | 1.7 | 1.7 | 0.00 | 0.00 | 0.00 | 50 | 1004.8 |
| 20260504223154 | 76 | 134 | 0.9 | 1.7 | 0.00 | 0.00 | 0.00 | 50 | 1004.8 |
| 20260504222652 | 76 | 126 | 2.6 | 4.3 | 0.00 | 0.00 | 0.00 | 50 | 1005.0 |
| 20260504222148 | 76 | 134 | 4.3 | 5.2 | 0.00 | 0.00 | 0.00 | 51 | 1004.9 |
| 20260504221646 | 76 | 104 | 3.5 | 4.3 | 0.00 | 0.00 | 0.00 | 51 | 1005.0 |
| 20260504221143 | 75 | 139 | 2.6 | 2.6 | 0.00 | 0.00 | 0.00 | 52 | 1005.1 |
| 20260504220639 | 76 | 135 | 0.0 | 0.0 | 0.00 | 0.00 | 0.00 | 50 | 1005.2 |
| 20260504220137 | 76 | 113 | 4.3 | 7.0 | 0.00 | 0.00 | 0.00 | 51 | 1005.0 |
| 20260504215633 | 77 | 142 | 3.5 | 4.3 | 0.00 | 0.00 | 0.00 | 50 | 1005.0 |
| 20260504215130 | 78 | 118 | 1.7 | 2.6 | 0.00 | 0.00 | 0.00 | 49 | 1005.1 |
| 20260504214626 | 78 | 140 | 3.5 | 4.3 | 0.00 | 0.00 | 0.00 | 51 | 1005.0 |
| 20260504214122 | 78 | 171 | 4.3 | 5.2 | 0.00 | 0.00 | 0.00 | 50 | 1005.2 |
| 20260504213619 | 77 | 135 | 1.7 | 2.6 | 0.00 | 0.00 | 0.00 | 54 | 1005.0 |
| 20260504213116 | 78 | 162 | 2.6 | 2.6 | 0.00 | 0.00 | 0.00 | 53 | 1005.1 |
| 20260504212612 | 77 | 97 | 0.9 | 1.7 | 0.00 | 0.00 | 0.00 | 54 | 1005.2 |
| 20260504212109 | 76 | 128 | 5.2 | 7.0 | 0.00 | 0.00 | 0.00 | 53 | 1005.3 |
| 20260504211606 | 76 | 172 | 1.7 | 1.7 | 0.00 | 0.00 | 0.00 | 55 | 1005.3 |
| 20260504211103 | 76 | 97 | 5.2 | 7.0 | 0.00 | 0.00 | 0.00 | 54 | 1005.5 |
| 20260504210601 | 77 | 147 | 3.5 | 4.3 | 0.00 | 0.00 | 0.00 | 53 | 1005.6 |
| 20260504210056 | 76 | 136 | 4.3 | 6.1 | 0.00 | 0.00 | 0.00 | 54 | 1005.4 |
| 20260504205555 | 77 | 109 | 2.6 | 2.6 | 0.00 | 0.00 | 0.00 | 54 | 1005.4 |
| 20260504205052 | 76 | 129 | 4.3 | 5.2 | 0.00 | 0.00 | 0.00 | 55 | 1005.4 |
| 20260504204550 | 75 | 128 | 0.0 | 1.7 | 0.00 | 0.00 | 0.00 | 56 | 1005.7 |
| 20260504204049 | 75 | 113 | 2.6 | 4.3 | 0.00 | 0.00 | 0.00 | 56 | 1005.6 |
| 20260504203547 | 74 | 146 | 3.5 | 5.2 | 0.00 | 0.00 | 0.00 | 54 | 1005.6 |
| 20260504203044 | 74 | 145 | 3.5 | 6.1 | 0.00 | 0.00 | 0.00 | 54 | 1005.8 |
| 20260504202539 | 74 | 135 | 5.2 | 7.0 | 0.00 | 0.00 | 0.00 | 56 | 1005.9 |
| 20260504202037 | 74 | 111 | 7.8 | 8.7 | 0.00 | 0.00 | 0.00 | 56 | 1005.7 |
| 20260504201533 | 74 | 113 | 1.7 | 2.6 | 0.00 | 0.00 | 0.00 | 55 | 1005.9 |
| 20260504201032 | 73 | 128 | 4.3 | 6.1 | 0.00 | 0.00 | 0.00 | 56 | 1005.8 |
| 20260504200527 | 73 | 121 | 7.0 | 8.7 | 0.00 | 0.00 | 0.00 | 56 | 1005.9 |
| 20260504200024 | 73 | 161 | 5.2 | 7.0 | 0.00 | 0.00 | 0.00 | 56 | 1005.8 |
| 20260504195520 | 72 | 126 | 2.6 | 5.2 | 0.00 | 0.00 | 0.00 | 58 | 1005.9 |
| 20260504195017 | 72 | 150 | 2.6 | 2.6 | 0.00 | 0.00 | 0.00 | 57 | 1005.9 |
| 20260504194514 | 72 | 125 | 4.3 | 7.8 | 0.00 | 0.00 | 0.00 | 60 | 1006.2 |
| 20260504194009 | 71 | 117 | 2.6 | 2.6 | 0.00 | 0.00 | 0.00 | 61 | 1006.4 |
| 20260504193506 | 72 | 134 | 3.5 | 4.3 | 0.00 | 0.00 | 0.00 | 63 | 1006.1 |
| 20260504193005 | 70 | 142 | 6.1 | 7.8 | 0.00 | 0.00 | 0.00 | 61 | 1006.3 |
| 20260504192502 | 69 | 108 | 4.3 | 6.1 | 0.00 | 0.00 | 0.00 | 61 | 1006.4 |
| 20260504192001 | 68 | 126 | 6.1 | 7.0 | 0.00 | 0.00 | 0.00 | 64 | 1006.3 |
| 20260504191458 | 68 | 118 | 6.1 | 8.7 | 0.00 | 0.00 | 0.00 | 65 | 1006.4 |
| 20260504190954 | 68 | 150 | 7.0 | 7.8 | 0.00 | 0.00 | 0.00 | 65 | 1006.3 |
| 20260504190449 | 67 | 144 | 8.7 | 11.3 | 0.00 | 0.00 | 0.00 | 68 | 1006.6 |
| 20260504185946 | 66 | 140 | 4.3 | 6.1 | 0.00 | 0.00 | 0.00 | 71 | 1006.7 |
| 20260504185443 | 65 | 133 | 3.5 | 4.3 | 0.00 | 0.00 | 0.00 | 72 | 1006.8 |
| 20260504184939 | 65 | 145 | 2.6 | 4.3 | 0.00 | 0.00 | 0.00 | 73 | 1007.1 |
| 20260504184435 | 65 | 141 | 6.1 | 7.0 | 0.00 | 0.00 | 0.00 | 73 | 1006.0 |
| 20260504183931 | 66 | 145 | 4.3 | 5.2 | 0.00 | 0.00 | 0.00 | 68 | 1007.2 |
| 20260504183429 | 68 | 93 | 3.5 | 7.8 | 0.00 | 0.00 | 0.00 | 64 | 1008.0 |
| 20260504182927 | 69 | 129 | 8.7 | 12.2 | 0.00 | 0.00 | 0.00 | 60 | 1008.1 |
| 20260504182423 | 69 | 129 | 0.9 | 1.7 | 0.00 | 0.00 | 0.00 | 59 | 1007.8 |
| 20260504181920 | 70 | 139 | 4.3 | 6.1 | 0.00 | 0.00 | 0.00 | 58 | 1007.3 |
| 20260504181417 | 71 | 146 | 4.3 | 5.2 | 0.00 | 0.00 | 0.00 | 56 | 1007.3 |
| 20260504180916 | 72 | 176 | 7.0 | 7.8 | 0.00 | 0.00 | 0.00 | 54 | 1007.4 |
| 20260504180415 | 73 | 78 | 3.5 | 5.2 | 0.00 | 0.00 | 0.00 | 54 | 1007.4 |
| 20260504175912 | 72 | 127 | 2.6 | 2.6 | 0.00 | 0.00 | 0.00 | 57 | 1007.3 |
| 20260504175409 | 71 | 79 | 4.3 | 5.2 | 0.00 | 0.00 | 0.00 | 56 | 1006.8 |
| 20260504174907 | 71 | 137 | 7.8 | 8.7 | 0.00 | 0.00 | 0.00 | 55 | 1007.0 |
| 20260504174404 | 70 | 117 | 4.3 | 5.2 | 0.00 | 0.00 | 0.00 | 56 | 1006.8 |
| 20260504173901 | 70 | 147 | 6.1 | 7.8 | 0.00 | 0.00 | 0.00 | 56 | 1006.9 |
| 20260504173357 | 70 | 93 | 7.8 | 11.3 | 0.00 | 0.00 | 0.00 | 56 | 1007.0 |
| 20260504172855 | 70 | 137 | 6.1 | 8.7 | 0.00 | 0.00 | 0.00 | 59 | 1006.8 |
| 20260504172351 | 70 | 169 | 4.3 | 5.2 | 0.00 | 0.00 | 0.00 | 58 | 1007.1 |
| 20260504171847 | 70 | 138 | 0.9 | 1.7 | 0.00 | 0.00 | 0.00 | 61 | 1007.0 |
| 20260504171345 | 68 | 113 | 4.3 | 6.1 | 0.00 | 0.00 | 0.00 | 60 | 1007.1 |
| 20260504170842 | 68 | 127 | 6.1 | 7.8 | 0.00 | 0.00 | 0.00 | 59 | 1006.9 |
| 20260504170338 | 68 | 113 | 6.1 | 7.0 | 0.00 | 0.00 | 0.00 | 60 | 1007.4 |
| 20260504160257 | 65 | 124 | 3.5 | 4.3 | 0.00 | 0.00 | 0.00 | 68 | 1008.0 |
| 20260504150722 | 61 | 125 | 2.6 | 2.6 | 0.00 | 0.00 | 0.00 | 75 | 1009.2 |
| 20260504150219 | 61 | 132 | 2.6 | 2.6 | 0.00 | 0.00 | 0.00 | 74 | 1009.5 |
| 20260504141148 | 56 | 120 | 5.2 | 6.1 | 0.00 | 0.00 | 0.00 | 80 | 1009.4 |
| 20260504140645 | 56 | 134 | 5.2 | 8.7 | 0.00 | 0.00 | 0.00 | 81 | 1009.7 |
| 20260504140140 | 55 | 165 | 4.3 | 5.2 | 0.00 | 0.00 | 0.00 | 80 | 1009.8 |
| 20260504130609 | 57 | 165 | 4.3 | 5.2 | 0.00 | 0.00 | 0.00 | 70 | 1009.8 |
| 20260504130106 | 57 | 115 | 6.1 | 7.8 | 0.00 | 0.00 | 0.00 | 69 | 1009.4 |
| 20260504110456 | 42 | 127 | 0.0 | 0.0 | 0.00 | 0.00 | 0.00 | 96 | 1009.0 |
| 20260504100419 | 42 | 129 | 0.0 | 0.0 | 0.00 | 0.00 | 0.00 | 96 | 1009.1 |
| 20260504081812 | 42 | 132 | 0.0 | 0.0 | 0.00 | 0.00 | 0.00 | 96 | 1009.9 |
| 20260504081309 | 42 | 132 | 0.0 | 0.0 | 0.00 | 0.00 | 0.00 | 96 | 1010.0 |
| 20260504080805 | 42 | 133 | 0.0 | 0.0 | 0.00 | 0.00 | 0.00 | 96 | 1009.9 |
| 20260504080301 | 42 | 132 | 0.0 | 0.0 | 0.00 | 0.00 | 0.00 | 96 | 1009.9 |
| 20260504070229 | 44 | 132 | 0.0 | 0.0 | 0.00 | 0.00 | 0.00 | 93 | 1010.2 |
| 20260504060149 | 47 | 134 | 0.9 | 0.9 | 0.00 | 0.00 | 0.00 | 90 | 1010.7 |